Tracking 27086 objects as of 22-Mar-2023
HD Live streaming from Space Station
objects crossing your sky now

STARLINK-5463

Track STARLINK-5463 now!
10-day predictions
STARLINK-5463 is classified as:


NORAD ID: 55673
Int'l Code: 2023-021AX
Perigee: 363.8 km
Apogee: 368.7 km
Inclination: 70.0 °
Period: 91.7 minutes
Semi major axis: 6737 km
RCS: Unknown
Launch date: February 17, 2023
Source: United States (US)
Launch site: AIR FORCE WESTERN TEST RANGE (AFWTR)
Your satellite tracking list
Your tracking list is empty




NASA's NSSDC Master Catalog

Two Line Element Set (TLE):
1 55673U 23021AX  23081.09096660  .00007268  00000-0  62155-4 0  9990
2 55673  70.0013  59.0465 0003585 277.1604  82.9184 15.69926282  5610
Source of the keplerian elements: AFSPC